EW1577 Weather Reports


time (UTC)temp
C
wind
direction
speed
KPH
gust
KPH
rain 1hr
cm
rain 24hr
cm
rain mn
cm
humidity
%
barometer
mb
20190325162151 3 0 8.0 11.3 0.20 1.22 1.07 90 1018.2
20190325161150 -17 0 12.9 12.9 0.20 1.22 1.07 1018.2
20190325160148 3 23 9.7 9.7 0.00 1.02 0.86 90 1017.9
20190325155146 -17 0.0 0.0 0.00 1.02 0.86 1018.2
20190325154145 -17 0.0 0.0 0.03 1.02 0.86 1018.2
20190325153144 -17 0.0 0.0 0.03 1.02 0.86 1017.5
20190325152143 -17 0.0 0.0 0.03 1.02 0.86 1018.2
20190325151143 -17 0.0 0.0 0.13 1.02 0.86 1017.9
20190325150143 3 23 6.4 8.0 0.13 1.02 0.86 88 1018.2
20190325145139 -17 23 4.8 4.8 0.13 1.02 0.86 1017.2
20190325144138 -17 45 4.8 4.8 0.10 0.99 0.84 1017.2
20190325143139 5 315 8.0 6.4 0.23 0.99 0.84 91 1016.9
20190325142141 5 315 9.7 14.5 0.23 0.99 0.84 91 1016.9
20190325141135 -17 0.0 0.0 0.13 0.89 0.74 1016.9
20190325140138 -17 0.0 0.0 0.18 0.89 0.74 1017.2
20190325135133 5 293 4.8 4.8 0.23 0.89 0.74 93 1017.2
20190325134133 -17 293 6.4 6.4 0.25 0.89 0.74 1016.9
20190325133129 -17 0.0 0.0 0.20 0.76 0.61 1016.9
20190325132128 -17 0.0 0.0 0.36 0.76 0.61 1016.5
20190325131130 5 0 3.2 4.8 0.36 0.76 0.61 93 1016.9
20190325130129 5 315 3.2 8.0 0.30 0.71 0.56 93 1016.9
20190325125126 5 338 4.8 8.0 0.28 0.66 0.51 93 1017.2
20190325124127 5 23 3.2 4.8 0.36 0.64 0.48 93 1016.2
20190325123125 -17 338 4.8 6.4 0.28 0.56 0.41 1017.2
20190325122120 -17 0.0 0.0 0.13 0.41 0.25 1016.9
20190325121123 -17 0.0 0.0 0.15 0.41 0.25 1016.5
20190325120120 -17 23 6.4 6.4 0.18 0.41 0.25 1016.9
20190325115124 5 270 4.8 6.4 0.15 0.38 0.23 93 1016.2
20190325114119 -17 0.0 0.0 0.08 0.28 0.13 1016.5
20190325113115 -17 90 3.2 1.6 0.08 0.28 0.13 1015.8
20190325112114 5 68 3.2 6.4 0.08 0.28 0.13 93 1015.8
20190325111112 5 270 3.2 4.8 0.08 0.25 0.10 93 1016.2
20190325110113 5 338 3.2 6.4 0.05 0.23 0.08 91 1016.5
20190325105110 5 90 1.6 4.8 0.05 0.23 0.08 91 1016.5
20190325104109 6 45 3.2 3.2 0.03 0.20 0.05 91 1015.8
20190325103108 6 68 1.6 3.2 0.05 0.20 0.05 91 1015.8
20190325102109 6 23 0.0 3.2 0.05 0.20 0.05 91 1015.8
20190325101106 6 90 1.6 3.2 0.03 0.18 0.03 91 1016.2
20190325100105 6 90 3.2 3.2 0.03 0.18 0.03 91 1016.5
20190325095104 6 0 1.6 3.2 0.03 0.18 0.03 90 1016.2
20190325094104 6 315 1.6 4.8 0.03 0.18 0.03 90 1016.9
20190325093102 6 68 1.6 3.2 0.00 0.15 0.00 88 1016.5
20190325092100 6 45 1.6 3.2 0.00 0.15 0.00 88 1016.5
20190325091058 6 45 3.2 6.4 0.00 0.15 0.00 88 1016.2
20190325090100 6 68 3.2 8.0 0.00 0.15 0.00 88 1016.2
20190325085055 6 315 3.2 9.7 0.00 0.15 0.00 90 1015.5
20190325084058 6 68 4.8 8.0 0.00 0.15 0.00 91 1016.2
20190325083056 6 90 3.2 8.0 0.00 0.15 0.00 91 1016.5
20190325082052 6 293 3.2 8.0 0.00 0.15 0.00 93 1016.2
20190325081051 6 23 3.2 6.4 0.00 0.15 0.00 93 1016.5
20190325080054 6 68 1.6 4.8 0.00 0.15 0.00 93 1017.2
20190325075049 6 90 3.2 6.4 0.00 0.15 0.00 93 1017.5
20190325074048 6 68 3.2 6.4 0.00 0.15 0.00 93 1016.9
20190325073046 6 45 3.2 6.4 0.00 0.15 0.00 93 1017.2
20190325072044 6 68 3.2 6.4 0.00 0.15 0.00 93 1017.5
20190325071044 6 23 4.8 9.7 0.00 0.15 0.00 93 1017.2
20190325070044 6 0 3.2 11.3 0.00 0.15 0.00 93 1016.9
20190325065043 6 45 4.8 6.4 0.00 0.15 0.00 93 1016.9
20190325064047 6 338 3.2 6.4 0.00 0.15 0.00 93 1017.9
20190325063041 7 0 3.2 6.4 0.00 0.15 0.00 93 1017.2
20190325062041 7 23 3.2 4.8 0.00 0.15 0.00 93 1017.2
20190325061035 7 270 3.2 6.4 0.00 0.15 0.00 93 1017.9
20190325060035 7 45 3.2 6.4 0.00 0.15 0.00 93 1017.2
20190325055038 7 315 3.2 6.4 0.00 0.15 0.00 93 1017.9
20190325054032 7 0 3.2 4.8 0.00 0.15 0.00 93 1017.5
20190325053031 7 23 1.6 6.4 0.00 0.15 0.00 93 1017.2
20190325052030 7 338 4.8 9.7 0.00 0.15 0.00 93 1017.2
20190325051029 7 68 3.2 6.4 0.00 0.15 0.00 91 1017.5
20190325050030 7 338 3.2 4.8 0.00 0.15 0.00 91 1017.2
20190325045026 7 270 3.2 6.4 0.00 0.15 0.00 91 1017.5
20190325044028 7 23 4.8 6.4 0.03 0.15 0.00 91 1018.2
20190325043024 7 315 3.2 6.4 0.03 0.15 0.00 91 1018.2
20190325042022 7 293 1.6 3.2 0.03 0.15 0.00 91 1017.2
20190325041021 7 293 1.6 3.2 0.03 0.15 0.00 91 1018.2
20190325040023 7 293 1.6 3.2 0.05 0.15 0.00 91 1017.2
20190325035022 7 0 0.0 3.2 0.05 0.15 0.15 91 1017.9
20190325034019 7 90 1.6 3.2 0.03 0.13 0.13 90 1017.2
20190325033019 7 293 0.0 0.0 0.03 0.13 0.13 88 1018.2
20190325032015 -17 293 0.0 0.0 0.03 0.13 0.13 1017.2
20190325031014 7 315 0.0 1.6 0.03 0.13 0.13 88 1017.2
20190325030010 7 203 0.0 3.2 0.00 0.10 0.10 86 1017.5
20190325025013 7 180 0.0 1.6 0.00 0.10 0.10 86 1017.9
20190325024012 7 90 0.0 3.2 0.00 0.10 0.10 86 1017.5
20190325023009 7 158 1.6 6.4 0.00 0.10 0.10 86 1017.2
20190325022012 7 180 1.6 6.4 0.00 0.10 0.10 88 1017.5
20190325021010 7 90 0.0 3.2 0.00 0.10 0.10 88 1017.2
20190325020005 7 68 1.6 3.2 0.00 0.10 0.10 88 1017.5
20190325015009 7 68 1.6 1.6 0.03 0.10 0.10 88 1017.5
20190325014003 7 90 1.6 3.2 0.03 0.10 0.10 88 1018.2
20190325013008 7 90 1.6 4.8 0.05 0.10 0.10 88 1017.9
20190325012000 7 68 3.2 8.0 0.08 0.10 0.10 88 1017.5
20190325010959 7 68 1.6 3.2 0.10 0.10 0.10 88 1017.9
20190325010001 7 68 0.0 0.0 0.10 0.10 0.10 86 1017.9
20190325004955 8 45 0.0 0.0 0.08 0.08 0.08 85 1017.5
20190325003955 8 68 0.0 0.0 0.08 0.08 0.08 83 1017.9
20190325002954 8 68 0.0 0.0 0.05 0.05 0.05 80 1018.2
20190325001952 9 90 0.0 1.6 0.03 0.03 0.03 75 1017.5
20190325000951 10 113 0.0 3.2 0.00 0.00 0.00 71 1018.2
20190324235951 10 135 0.0 4.8 0.00 0.00 0.00 61 1017.9
20190324234950 11 203 1.6 4.8 0.00 0.00 0.00 56 1018.2
20190324233949 11 135 1.6 4.8 0.00 0.00 0.00 49 1018.2
20190324232948 11 225 4.8 11.3 0.00 0.00 0.00 46 1018.2
20190324231948 12 203 4.8 9.7 0.00 0.00 0.00 45 1018.5
20190324230943 12 203 4.8 12.9 0.00 0.00 0.00 44 1018.5
20190324225943 12 225 8.0 17.7 0.00 0.00 0.00 44 1018.5
20190324224941 12 225 6.4 16.1 0.00 0.00 0.00 44 1018.5
20190324223939 13 158 4.8 12.9 0.00 0.00 0.00 37 1018.5
20190324222939 13 90 6.4 12.9 0.00 0.00 0.00 34 1018.2
20190324221938 13 248 12.9 24.1 0.00 0.00 0.00 32 1018.5
20190324220936 14 203 4.8 9.7 0.00 0.00 0.00 31 1018.2
20190324215935 14 270 8.0 14.5 0.00 0.00 0.00 30 1018.2
20190324214934 14 225 6.4 11.3 0.00 0.00 0.00 30 1019.0
20190324213932 14 270 4.8 9.7 0.00 0.00 0.00 30 1017.9
20190324212933 14 135 3.2 8.0 0.00 0.00 0.00 30 1018.2
20190324211930 14 180 3.2 9.7 0.00 0.00 0.00 30 1019.0
20190324210929 15 225 6.4 9.7 0.00 0.00 0.00 29 1018.5
20190324205928 15 225 6.4 9.7 0.00 0.00 0.00 30 1018.2
20190324204927 15 225 4.8 9.7 0.00 0.00 0.00 30 1018.5
20190324203924 15 270 6.4 20.9 0.00 0.00 0.00 30 1018.2
20190324202925 15 225 4.8 12.9 0.00 0.00 0.00 30 1018.5
20190324201923 15 90 6.4 9.7 0.00 0.00 0.00 30 1019.0
20190324200921 15 180 8.0 12.9 0.00 0.00 0.00 30 1018.5
20190324195920 15 225 4.8 14.5 0.00 0.00 0.00 29 1018.5
20190324194918 16 203 4.8 9.7 0.00 0.00 0.00 27 1018.5
20190324193919 16 0 6.4 12.9 0.00 0.00 0.00 29 1018.5
20190324192915 16 180 3.2 6.4 0.00 0.00 0.00 27 1018.5
20190324191914 16 225 4.8 9.7 0.00 0.00 0.00 29 1018.5
20190324190914 15 180 4.8 8.0 0.00 0.00 0.00 30 1017.9
20190324185914 16 158 3.2 11.3 0.00 0.00 0.00 31 1019.0
20190324184913 15 180 3.2 12.9 0.00 0.00 0.00 30 1018.5
20190324183912 16 90 4.8 9.7 0.00 0.00 0.00 30 1019.3
20190324182912 16 113 3.2 9.7 0.00 0.00 0.00 30 1019.3
20190324181908 15 270 6.4 14.5 0.00 0.00 0.00 29 1019.7
20190324180907 15 248 4.8 11.3 0.00 0.00 0.00 29 1020.0
20190324175909 15 180 6.4 11.3 0.00 0.00 0.00 29 1019.7
20190324174907 15 180 3.2 8.0 0.00 0.00 0.00 27 1020.0
20190324173903 15 180 6.4 11.3 0.00 0.00 0.00 30 1020.3
20190324172902 15 270 4.8 11.3 0.00 0.00 0.00 29 1020.0
20190324171901 15 203 6.4 9.7 0.00 0.00 0.00 27 1021.0
20190324170901 15 203 4.8 9.7 0.00 0.00 0.00 30 1020.7
20190324165858 14 135 6.4 9.7 0.00 0.00 0.00 30 1021.0
20190324164857 15 180 3.2 9.7 0.00 0.00 0.00 31 1020.7
20190324163857 14 270 3.2 6.4 0.00 0.00 0.00 32 1021.0
20190324162854 13 203 3.2 8.0 0.00 0.00 0.00 34 1021.0